Overview Statistics Trail Chart Weather Telemetry Raw packets
 

This is the latest recevied weather packets stored in our database for station/object KC9TVS-13. If no packets are shown the sender has not sent any weather packets the latest 10 day(s).

<< 109 110 111 112 113 114 115 >>
Time Temp. Humidity Pressure Rain* Wind** Luminosity Snow
1787747364 25° C 89% 1016.5 hPa 0.76 mm - 42 W/m² -
1787747066 25° C 89% 1016.6 hPa 1.52 mm - 46 W/m² -
1787746765 25° C 89% 1016.6 hPa 2.29 mm - 53 W/m² -
1787746464 25° C 90% 1016.6 hPa 3.3 mm - 51 W/m² -
1787746163 24.44° C 89% 1016.5 hPa 5.84 mm - 47 W/m² -
1787745863 24.44° C 89% 1016.3 hPa 6.1 mm - 39 W/m² -
1787745561 24.44° C 90% 1016.2 hPa 6.86 mm - 35 W/m² -
1787745261 25° C 90% 1016.1 hPa 7.11 mm - 35 W/m² -
1787744959 25° C 90% 1015.7 hPa 7.37 mm - 33 W/m² -
1787744659 25° C 90% 1015.7 hPa 8.13 mm - 33 W/m² -
1787744358 25° C 90% 1015.8 hPa 9.4 mm - 37 W/m² -
1787744056 25° C 90% 1015.9 hPa 10.92 mm - 25 W/m² -
1787743757 25° C 90% 1015.9 hPa 10.67 mm - 18 W/m² -
1787743456 25.56° C 90% 1016.1 hPa 9.91 mm - 11 W/m² -
1787743158 25.56° C 89% 1015.9 hPa 9.14 mm - 0 W/m² -
1787742856 25.56° C 89% 1015.8 hPa 8.13 mm - 0 W/m² -
1787742556 25.56° C 89% 1015.8 hPa 5.59 mm - 0 W/m² -
1787742258 25.56° C 90% 1015.7 hPa 5.08 mm - 0 W/m² -
1787741955 25.56° C 89% 1015.5 hPa 4.57 mm - 0 W/m² -
1787741651 25.56° C 89% 1015.4 hPa 4.32 mm - 0 W/m² -
1787741352 25.56° C 89% 1015.4 hPa 4.06 mm - 0 W/m² -
1787741052 26.11° C 88% 1015.6 hPa 3.3 mm - 0 W/m² -
1787740751 26.11° C 89% 1015.4 hPa 1.52 mm - 0 W/m² -
1787740452 26.11° C 88% 1015.2 hPa 0.25 mm - 0 W/m² -
1787740152 26.11° C 88% 1015.2 hPa 0 mm - 0 W/m² -

* Rain latest hour (hover to see other rain measurements)
** Current wind speed in m/s (hover to see current wind gust speed)